Location: La Brionne
(46.1728°N, 1.7849°E)
Time: 21:30:05
(UTC+00:00)

Cosmos 2263 Rocket - Pass Details

Date: 16 June 2021
Orbit: 822 x 850 km, 71.0° (Epoch: 02 August)

Event Time Altitude Azimuth Distance (km) Brightness Sun altitude
Rises 20:47:08 0° 328° (NNW) 3,419 7.4 -8.6°
Reaches altitude 10° 20:49:40 10° 322° (NW) 2,482 6.3 -8.9°
Maximum altitude 20:55:02 44° 252° (WSW) 1,167 3.2 -9.5°
Drops below altitude 10° 21:00:22 10° 182° (S) 2,469 4.2 -10.1°
Enters shadow 21:01:29 - 179° (S) 2,872 4.5 -10.3°
